Location: Allos
(44.2333°N, 6.6333°E)
Time: 13:28:05
(UTC+00:00)

N. Korean satellite - Visible Passes

Search period start: 08 March 2021 00:00
Search period end: 18 March 2021 00:00
Orbit: 451 x 502 km, 97.2° (Epoch: 07 March)

Date Brightness Start Highest point End Pass type
(mag) Time Alt. Az. Time Alt. Az. Time Alt. Az.
08 Mar 7.5 04:45:22 10° NNE 04:48:51 50° E 04:52:23 10° S visible
09 Mar 9.1 04:19:02 10° NE 04:21:59 24° E 04:24:57 10° SSE visible
10 Mar 10.0 03:53:39 10° ENE 03:55:01 12° E 03:56:21 10° ESE visible
10 Mar 6.8 05:25:05 10° N 05:28:33 47° WNW 05:32:02 10° SSW visible
11 Mar 6.8 04:58:12 10° NNE 05:01:48 76° E 05:05:26 10° S visible
12 Mar 8.4 04:31:38 10° NNE 04:34:58 34° E 04:38:18 10° SSE visible
13 Mar 9.7 04:05:36 10° NE 04:08:01 17° E 04:10:26 10° SE visible
14 Mar 6.5 05:11:04 10° N 05:14:41 73° WNW 05:18:19 10° SSW visible
15 Mar 7.6 04:44:19 10° NNE 04:47:52 50° E 04:51:26 10° S visible
16 Mar 9.2 04:17:57 10° NE 04:20:57 24° E 04:23:57 10° SSE visible
17 Mar 10.0 03:52:33 10° ENE 03:53:56 12° E 03:55:18 10° ESE visible
